Home > Weather > Vaasa > Past weeks

Flag for Finland Past Weather in Vaasa, Finland — Yesterday and Last 2 Weeks

Now
52 °F

Clear.


Feels Like: 52 °F
Forecast: 51 / 62 °F
Wind: No wind

Location: Vaasa Airport

Current Time: Aug 24, 2016 at 11:01:19 PM

Latest Report: Aug 24, 2016 at 10:20 PM


Visibility: 10 mi

Pressure: 30.18 "Hg

Humidity: 94%

Dew Point: 50 °F

Location of VaasaLocation

Past Weather in Vaasa — Graph

°F

Vaasa Temperature Yesterday

Maximum temperature yesterday: 70 °F (at 1:50 PM)
Minimum temperature yesterday: 55 °F (at 11:20 PM)
Average temperature yesterday: 61 °F

High & Low Weather Summary for the Past Weeks

 TemperatureHumidityPressure
High70 °F (Aug 23, 1:50 PM)100% (Aug 10, 3:50 AM)30.24 "Hg (Aug 10, 3:50 AM)
Low45 °F (Aug 12, 3:50 AM)52% (Aug 10, 5:50 PM)29.45 "Hg (Aug 9, 9:20 PM)
Average57 °F87%29.89 "Hg
* Reported Aug 9 9:20 PM — Aug 24 9:50 PM, Vaasa, Weather by CustomWeather, © 2016

Note: Actual official high and low records may vary slightly from our data, if they occured in-between our weather recording intervals... More about our weather records

Advertising

Vaasa Weather History for the Previous 24 Hours

Scroll right to see more
 ConditionsComfort  
Time TempWeatherWind HumidityBarometerVisibility
9:50 PM
Wed, Aug 24
52 °FSunny.2 mph94%30.18 "Hg10 mi
9:20 PM54 °FSunny.1 mph88%30.18 "Hg10 mi
8:50 PM57 °FSunny.2 mph82%30.18 "Hg10 mi
8:20 PM59 °FSunny.5 mph72%30.18 "Hg10 mi
7:50 PM59 °FSunny.3 mph72%30.21 "Hg10 mi
7:20 PM61 °FSunny.3 mph68%30.21 "Hg10 mi
6:50 PM61 °FPassing clouds.5 mph63%30.21 "HgN/A
6:20 PM63 °FPassing clouds.5 mph64%30.21 "HgN/A
5:50 PM63 °FSunny.7 mph59%30.21 "Hg10 mi
5:20 PM63 °FPassing clouds.5 mph64%30.21 "HgN/A
4:50 PM61 °FPassing clouds.8 mph63%30.21 "HgN/A
4:20 PM63 °FSunny.10 mph64%30.21 "Hg10 mi
3:50 PM63 °FPassing clouds.9 mph64%30.24 "HgN/A
3:20 PM63 °FPassing clouds.8 mph64%30.24 "HgN/A
2:50 PM63 °FPassing clouds.9 mph64%30.24 "HgN/A
2:20 PM61 °FPassing clouds.9 mph68%30.24 "HgN/A
1:50 PM61 °FPassing clouds.9 mph68%30.24 "HgN/A
1:20 PM61 °FPassing clouds.10 mph68%30.24 "HgN/A
12:50 PM61 °FPassing clouds.9 mph63%30.24 "HgN/A
12:20 PM61 °FPassing clouds.9 mph68%30.24 "HgN/A
11:50 AM61 °FPassing clouds.8 mph72%30.21 "HgN/A
11:20 AM61 °FPassing clouds.7 mph68%30.21 "HgN/A
10:50 AM59 °FPassing clouds.6 mph72%30.21 "HgN/A
10:20 AM57 °FScattered clouds.6 mph82%30.21 "HgN/A
9:50 AM57 °FPartly sunny.6 mph82%30.21 "HgN/A
9:20 AM55 °FBroken clouds.6 mph88%30.21 "HgN/A
8:50 AM55 °FOvercast.7 mph88%30.21 "HgN/A
8:20 AM55 °FBroken clouds.7 mph94%30.21 "HgN/A
7:50 AM55 °FLight rain. Partly sunny.6 mph94%30.21 "HgN/A
7:20 AM55 °FLow clouds.5 mph100%30.18 "HgN/A
6:50 AM54 °FMostly cloudy.3 mph100%30.18 "HgN/A
6:20 AM54 °FFog.5 mph100%30.18 "Hg2 mi
5:50 AM54 °FFog.3 mph100%30.18 "Hg2 mi
5:20 AM54 °FFog.6 mph100%30.15 "Hg1 mi
4:50 AM54 °FFog.3 mph94%30.15 "Hg1 mi
4:20 AM52 °FFog.2 mph94%30.15 "Hg1 mi
3:50 AM50 °FFog.1 mph100%30.12 "Hg2 mi
3:20 AM50 °FFog.2 mph100%30.12 "Hg1 mi
2:50 AM52 °FFog.1 mph94%30.12 "Hg0 mi
2:20 AM52 °FFog.3 mph100%30.09 "Hg1 mi
1:50 AM52 °FFog.2 mph100%30.09 "Hg1 mi
1:20 AM54 °FFog.No wind100%30.09 "Hg2 mi
12:50 AM54 °FFog.1 mph100%30.09 "Hg1 mi
12:20 AM55 °FPassing clouds.1 mph94%30.09 "Hg4 mi
11:50 PM
Tue, Aug 23
55 °FPassing clouds.2 mph94%30.09 "HgN/A
11:20 PM55 °FClear.2 mph100%30.09 "Hg10 mi
Weather by CustomWeather, © 2016

See weather overviewHow to use our weather pages